Simultaneous Nadir Overpasses (SNOs) Predictions

Prediction of SNOs between TERRA and METOP-C Satellite Orbit:

Table of predicted SNOs for the next 14.0 days since TLE Epoch: 6/18/2021
Index Date (TERRA) Time (TERRA) Lat,Lon (TERRA) SZA (TERRA ) Date (METOP-C) Time (METOP-C) Lat,Lon (METOP-C) SZA (METOP-C ) Distance(km) Time Diff (sec)
1 06/20/2021 20:07:48 -81.30, 104.12 119.39 06/20/2021 20:07:40 -81.30, 104.16 119.39 0.90 8
2 06/20/2021 20:57:14 81.31, -88.16 60.63 06/20/2021 20:58:19 81.30, -88.21 60.65 1.02 65
3 06/23/2021 14:52:35 81.28, 2.47 60.55 06/23/2021 14:51:22 81.28, 2.29 60.50 3.04 73
4 06/23/2021 15:42:01 -81.30, 170.44 119.40 06/23/2021 15:42:02 -81.30, 170.34 119.41 1.62 1
5 06/23/2021 16:31:27 81.30, -21.87 60.61 06/23/2021 16:32:41 81.30, -22.05 60.62 3.05 74
6 06/26/2021 10:26:47 81.29, 69.10 60.64 06/26/2021 10:25:42 81.29, 69.21 60.62 1.97 65
7 06/26/2021 11:16:14 -81.29,-123.28 119.37 06/26/2021 11:16:23 -81.30,-123.10 119.34 3.20 9
8 06/29/2021 06:00:58 81.30, 135.69 60.77 06/29/2021 06:00:02 81.29, 135.74 60.75 1.02 56
9 06/29/2021 06:50:25 -81.30, -56.66 119.23 06/29/2021 06:50:43 -81.30, -56.56 119.21 1.67 18
10 07/02/2021 01:35:11 81.28,-158.12 60.90 07/02/2021 01:34:24 81.29,-158.13 60.88 0.42 47



Historial Predications of SNOs between TERRA and METOP-C
